Wetterdaten: Montag, 18.01.2016
Datum Zeit Auen-Temp. Temp gefhlt Luftfeuchte Luftdruck Regen Wind Richtung Richtung Taupunkt Windben
18.01.2016 00:00 -8,3 C -8,5 C 80 % 1026,6 hPa 0,0 mm 2,3 km/h (1 Bft) S 180 -11,1 C 2,6 km/h (1 Bft)
18.01.2016 00:05 -8,6 C -8,8 C 80 % 1026,6 hPa 0,0 mm 0,8 km/h (0 Bft) S-SW 202 -11,4 C 0,0 km/h (0 Bft)
18.01.2016 00:10 -8,6 C -8,9 C 80 % 1026,6 hPa 0,0 mm 0,5 km/h (0 Bft) W-SW 247 -11,4 C 2,6 km/h (1 Bft)
18.01.2016 00:15 -8,8 C -9,1 C 80 % 1026,6 hPa 0,0 mm 1,0 km/h (0 Bft) O-NO 67 -11,6 C 0,0 km/h (0 Bft)
18.01.2016 00:20 -9,3 C -9,5 C 80 % 1026,4 hPa 0,0 mm 0,5 km/h (0 Bft) O-SO 112 -12,1 C 0,0 km/h (0 Bft)
18.01.2016 00:25 -9,1 C -9,5 C 81 % 1026,4 hPa 0,0 mm 0,0 km/h (0 Bft) SO 135 -11,7 C 0,0 km/h (0 Bft)
18.01.2016 00:30 -9,0 C -9,5 C 81 % 1026,4 hPa 0,0 mm 0,0 km/h (0 Bft) SO 135 -11,6 C 0,0 km/h (0 Bft)
18.01.2016 00:35 -9,2 C -9,6 C 82 % 1026,4 hPa 0,0 mm 0,0 km/h (0 Bft) SO 135 -11,7 C 0,0 km/h (0 Bft)
18.01.2016 00:40 -9,1 C -9,6 C 82 % 1026,2 hPa 0,0 mm 0,3 km/h (0 Bft) SO 135 -11,6 C 0,0 km/h (0 Bft)
18.01.2016 00:45 -8,9 C -9,3 C 83 % 1026,2 hPa 0,0 mm 1,0 km/h (0 Bft) SO 135 -11,2 C 0,0 km/h (0 Bft)
18.01.2016 00:50 -9,0 C -9,4 C 83 % 1026,2 hPa 0,0 mm 0,8 km/h (0 Bft) SO 135 -11,3 C 0,0 km/h (0 Bft)
18.01.2016 00:55 -10,8 C -10,8 C 82 % 1026,2 hPa 0,0 mm 0,0 km/h (0 Bft) NW 315 -13,3 C 0,0 km/h (0 Bft)
18.01.2016 01:00 -10,9 C -11,1 C 81 % 1026,2 hPa 0,0 mm 0,0 km/h (0 Bft) S 180 -13,5 C 0,0 km/h (0 Bft)
18.01.2016 01:05 -10,1 C -10,7 C 82 % 1026,2 hPa 0,0 mm 0,0 km/h (0 Bft) S-SO 157 -12,6 C 0,0 km/h (0 Bft)
18.01.2016 01:10 -10,0 C -10,5 C 78 % 1026,2 hPa 0,0 mm 0,0 km/h (0 Bft) S-SO 157 -13,1 C 0,0 km/h (0 Bft)
18.01.2016 01:15 -10,8 C -11,0 C 78 % 1026,2 hPa 0,0 mm 0,0 km/h (0 Bft) S-SO 157 -13,9 C 0,0 km/h (0 Bft)
18.01.2016 01:20 -11,3 C -11,6 C 82 % 1026,0 hPa 0,0 mm 0,0 km/h (0 Bft) S-SO 157 -13,7 C 0,0 km/h (0 Bft)
18.01.2016 01:25 -12,4 C -12,5 C 81 % 1026,0 hPa 0,0 mm 0,0 km/h (0 Bft) SO 135 -15,0 C 0,0 km/h (0 Bft)
18.01.2016 01:30 -12,8 C -12,9 C 80 % 1026,0 hPa 0,0 mm 0,0 km/h (0 Bft) O-NO 67 -15,5 C 0,0 km/h (0 Bft)
18.01.2016 01:35 -11,8 C -12,4 C 81 % 1026,0 hPa 0,0 mm 0,0 km/h (0 Bft) O-SO 112 -14,4 C 0,0 km/h (0 Bft)
18.01.2016 01:40 -11,1 C -11,9 C 78 % 1025,8 hPa 0,0 mm 0,0 km/h (0 Bft) S-SO 157 -14,2 C 0,0 km/h (0 Bft)
18.01.2016 01:45 -11,0 C -11,7 C 83 % 1025,8 hPa 0,0 mm 0,0 km/h (0 Bft) S-SO 157 -13,3 C 0,0 km/h (0 Bft)
18.01.2016 01:50 -11,9 C -12,2 C 82 % 1025,8 hPa 0,0 mm 0,0 km/h (0 Bft) NW 315 -14,3 C 0,0 km/h (0 Bft)
18.01.2016 01:55 -13,0 C -13,2 C 81 % 1025,8 hPa 0,0 mm 0,0 km/h (0 Bft) NW 315 -15,6 C 0,0 km/h (0 Bft)
18.01.2016 02:00 -12,5 C -12,9 C 77 % 1025,5 hPa 0,0 mm 0,0 km/h (0 Bft) S 180 -15,7 C 0,0 km/h (0 Bft)
18.01.2016 02:05 -12,2 C -12,7 C 82 % 1025,5 hPa 0,0 mm 0,0 km/h (0 Bft) S 180 -14,6 C 0,0 km/h (0 Bft)
18.01.2016 02:10 -13,1 C -13,3 C 81 % 1025,5 hPa 0,0 mm 0,0 km/h (0 Bft) S-SO 157 -15,7 C 0,0 km/h (0 Bft)
18.01.2016 02:15 -14,2 C -14,0 C 80 % 1025,5 hPa 0,0 mm 0,0 km/h (0 Bft) NO 45 -16,9 C 0,0 km/h (0 Bft)
18.01.2016 02:20 -14,2 C -14,2 C 79 % 1025,5 hPa 0,0 mm 0,0 km/h (0 Bft) O-NO 67 -17,0 C 0,0 km/h (0 Bft)
18.01.2016 02:25 -13,9 C -14,1 C 79 % 1025,5 hPa 0,0 mm 0,0 km/h (0 Bft) O-SO 112 -16,7 C 0,0 km/h (0 Bft)
18.01.2016 02:30 -13,8 C -14,1 C 79 % 1025,5 hPa 0,0 mm 0,0 km/h (0 Bft) O-SO 112 -16,6 C 0,0 km/h (0 Bft)
18.01.2016 02:35 -13,5 C -13,9 C 79 % 1025,5 hPa 0,0 mm 0,0 km/h (0 Bft) NO 45 -16,3 C 0,0 km/h (0 Bft)
18.01.2016 02:40 -13,4 C -13,9 C 79 % 1025,4 hPa 0,0 mm 0,0 km/h (0 Bft) NO 45 -16,2 C 0,0 km/h (0 Bft)
18.01.2016 02:45 -13,8 C -14,2 C 79 % 1025,4 hPa 0,0 mm 0,0 km/h (0 Bft) NO 45 -16,6 C 0,0 km/h (0 Bft)
18.01.2016 02:50 -14,4 C -14,6 C 79 % 1025,4 hPa 0,0 mm 0,0 km/h (0 Bft) NO 45 -17,2 C 0,0 km/h (0 Bft)
18.01.2016 02:55 -15,0 C -15,1 C 78 % 1025,4 hPa 0,0 mm 0,0 km/h (0 Bft) NO 45 -18,0 C 0,0 km/h (0 Bft)
18.01.2016 03:00 -15,6 C -15,6 C 78 % 1025,2 hPa 0,0 mm 0,0 km/h (0 Bft) NO 45 -18,5 C 0,0 km/h (0 Bft)
18.01.2016 03:05 -15,6 C -15,8 C 78 % 1025,2 hPa 0,0 mm 0,0 km/h (0 Bft) NO 45 -18,5 C 0,0 km/h (0 Bft)
18.01.2016 03:10 -15,4 C -15,6 C 78 % 1025,2 hPa 0,0 mm 0,0 km/h (0 Bft) NO 45 -18,3 C 0,0 km/h (0 Bft)
18.01.2016 03:15 -15,2 C -15,6 C 78 % 1025,2 hPa 0,0 mm 0,0 km/h (0 Bft) NO 45 -18,1 C 0,0 km/h (0 Bft)
18.01.2016 03:20 -15,2 C -15,6 C 78 % 1025,2 hPa 0,0 mm 0,0 km/h (0 Bft) NO 45 -18,1 C 0,0 km/h (0 Bft)
18.01.2016 03:25 -15,7 C -15,9 C 77 % 1025,2 hPa 0,0 mm 0,0 km/h (0 Bft) NO 45 -18,8 C 0,0 km/h (0 Bft)
18.01.2016 03:26 -15,9 C -16,1 C 77 % 1025,2 hPa 0,0 mm 0,0 km/h (0 Bft) NO 45 -19,0 C 0,0 km/h (0 Bft)
18.01.2016 03:30 -15,9 C -16,1 C 77 % 1025,2 hPa 0,0 mm 0,0 km/h (0 Bft) NO 45 -19,0 C 0,0 km/h (0 Bft)
18.01.2016 03:35 -15,9 C -16,1 C 77 % 1025,2 hPa 0,0 mm 0,0 km/h (0 Bft) NO 45 -19,0 C 0,0 km/h (0 Bft)
18.01.2016 03:40 -15,5 C -15,8 C 77 % 1025,0 hPa 0,0 mm 0,0 km/h (0 Bft) NO 45 -18,6 C 0,0 km/h (0 Bft)
18.01.2016 03:45 -15,8 C -16,1 C 77 % 1025,0 hPa 0,0 mm 0,0 km/h (0 Bft) NO 45 -18,9 C 0,0 km/h (0 Bft)
18.01.2016 03:50 -15,4 C -15,9 C 77 % 1025,0 hPa 0,0 mm 0,0 km/h (0 Bft) O-SO 112 -18,5 C 0,0 km/h (0 Bft)
18.01.2016 03:55 -14,9 C -15,5 C 77 % 1025,0 hPa 0,0 mm 0,0 km/h (0 Bft) O-SO 112 -18,0 C 0,0 km/h (0 Bft)
18.01.2016 04:00 -15,1 C -15,6 C 77 % 1024,8 hPa 0,0 mm 0,0 km/h (0 Bft) O-SO 112 -18,2 C 0,0 km/h (0 Bft)
18.01.2016 04:05 -15,2 C -15,6 C 77 % 1024,8 hPa 0,0 mm 0,0 km/h (0 Bft) O-SO 112 -18,3 C 0,0 km/h (0 Bft)
18.01.2016 04:10 -15,5 C -15,8 C 77 % 1024,8 hPa 0,0 mm 0,0 km/h (0 Bft) O-SO 112 -18,6 C 0,0 km/h (0 Bft)
18.01.2016 04:15 -15,8 C -16,1 C 77 % 1024,8 hPa 0,0 mm 0,0 km/h (0 Bft) O-SO 112 -18,9 C 0,0 km/h (0 Bft)
18.01.2016 04:20 -16,0 C -16,3 C 77 % 1024,6 hPa 0,0 mm 0,0 km/h (0 Bft) O-SO 112 -19,1 C 0,0 km/h (0 Bft)
18.01.2016 04:25 -16,2 C -16,6 C 77 % 1024,6 hPa 0,0 mm 0,0 km/h (0 Bft) O-SO 112 -19,3 C 0,0 km/h (0 Bft)
18.01.2016 04:30 -16,3 C -16,7 C 77 % 1024,6 hPa 0,0 mm 0,0 km/h (0 Bft) O-SO 112 -19,4 C 0,0 km/h (0 Bft)
18.01.2016 04:35 -16,2 C -16,6 C 77 % 1024,6 hPa 0,0 mm 0,0 km/h (0 Bft) O-SO 112 -19,3 C 0,0 km/h (0 Bft)
18.01.2016 04:40 -16,2 C -16,6 C 77 % 1024,5 hPa 0,0 mm 0,0 km/h (0 Bft) O-SO 112 -19,3 C 0,0 km/h (0 Bft)
18.01.2016 04:45 -16,2 C -16,6 C 77 % 1024,5 hPa 0,0 mm 0,0 km/h (0 Bft) O-SO 112 -19,3 C 0,0 km/h (0 Bft)
18.01.2016 04:50 -16,4 C -16,8 C 77 % 1024,5 hPa 0,0 mm 0,0 km/h (0 Bft) O-SO 112 -19,5 C 0,0 km/h (0 Bft)
18.01.2016 04:55 -16,9 C -17,1 C 76 % 1024,5 hPa 0,0 mm 0,0 km/h (0 Bft) W-NW 292 -20,1 C 0,0 km/h (0 Bft)
18.01.2016 05:00 -17,2 C -17,4 C 76 % 1024,3 hPa 0,0 mm 0,0 km/h (0 Bft) W-NW 292 -20,4 C 0,0 km/h (0 Bft)
18.01.2016 05:05 -16,9 C -17,2 C 76 % 1024,3 hPa 0,0 mm 0,0 km/h (0 Bft) NW 315 -20,1 C 0,0 km/h (0 Bft)
18.01.2016 05:10 -16,0 C -16,6 C 76 % 1024,3 hPa 0,0 mm 0,0 km/h (0 Bft) NW 315 -19,2 C 0,0 km/h (0 Bft)
18.01.2016 05:15 -16,0 C -16,6 C 76 % 1024,3 hPa 0,0 mm 0,0 km/h (0 Bft) NW 315 -19,2 C 0,0 km/h (0 Bft)
18.01.2016 05:20 -16,3 C -16,8 C 76 % 1024,2 hPa 0,0 mm 0,0 km/h (0 Bft) NW 315 -19,5 C 0,0 km/h (0 Bft)
18.01.2016 05:25 -16,4 C -17,0 C 76 % 1024,2 hPa 0,0 mm 0,0 km/h (0 Bft) W-NW 292 -19,6 C 0,0 km/h (0 Bft)
18.01.2016 05:30 -16,7 C -17,2 C 76 % 1024,2 hPa 0,0 mm 0,0 km/h (0 Bft) W-NW 292 -19,9 C 0,0 km/h (0 Bft)
18.01.2016 05:35 -16,8 C -17,3 C 76 % 1024,2 hPa 0,0 mm 0,0 km/h (0 Bft) W-NW 292 -20,0 C 0,0 km/h (0 Bft)
18.01.2016 05:40 -17,2 C -17,6 C 76 % 1024,0 hPa 0,0 mm 0,0 km/h (0 Bft) W-NW 292 -20,4 C 0,0 km/h (0 Bft)
18.01.2016 05:45 -17,4 C -17,8 C 75 % 1024,0 hPa 0,0 mm 0,0 km/h (0 Bft) W-NW 292 -20,7 C 0,0 km/h (0 Bft)
18.01.2016 05:50 -16,0 C -16,9 C 76 % 1024,0 hPa 0,0 mm 0,0 km/h (0 Bft) NW 315 -19,2 C 0,0 km/h (0 Bft)
18.01.2016 05:55 -16,4 C -17,2 C 76 % 1024,0 hPa 0,0 mm 0,0 km/h (0 Bft) W-NW 292 -19,6 C 0,0 km/h (0 Bft)
18.01.2016 06:00 -16,5 C -17,2 C 76 % 1023,8 hPa 0,0 mm 0,0 km/h (0 Bft) W-NW 292 -19,7 C 0,0 km/h (0 Bft)
18.01.2016 06:05 -16,8 C -17,4 C 76 % 1023,8 hPa 0,0 mm 0,0 km/h (0 Bft) W-NW 292 -20,0 C 0,0 km/h (0 Bft)
18.01.2016 06:10 -16,0 C -16,8 C 76 % 1023,8 hPa 0,0 mm 0,0 km/h (0 Bft) W-NW 292 -19,2 C 0,0 km/h (0 Bft)
18.01.2016 06:15 -16,5 C -17,0 C 76 % 1023,8 hPa 0,0 mm 0,0 km/h (0 Bft) NW 315 -19,7 C 0,0 km/h (0 Bft)
18.01.2016 06:20 -16,3 C -16,8 C 76 % 1023,7 hPa 0,0 mm 0,0 km/h (0 Bft) NW 315 -19,5 C 0,0 km/h (0 Bft)
18.01.2016 06:25 -16,8 C -17,2 C 76 % 1023,7 hPa 0,0 mm 0,0 km/h (0 Bft) NW 315 -20,0 C 0,0 km/h (0 Bft)
18.01.2016 06:30 -16,8 C -17,2 C 76 % 1023,7 hPa 0,0 mm 0,0 km/h (0 Bft) W-NW 292 -20,0 C 0,0 km/h (0 Bft)
18.01.2016 06:35 -17,5 C -17,8 C 75 % 1023,7 hPa 0,0 mm 0,0 km/h (0 Bft) W-NW 292 -20,8 C 0,0 km/h (0 Bft)
18.01.2016 06:40 -17,8 C -18,2 C 75 % 1023,4 hPa 0,0 mm 0,0 km/h (0 Bft) W-NW 292 -21,1 C 0,0 km/h (0 Bft)
18.01.2016 06:45 -17,4 C -18,0 C 75 % 1023,4 hPa 0,0 mm 0,0 km/h (0 Bft) NW 315 -20,7 C 0,0 km/h (0 Bft)
18.01.2016 06:50 -17,7 C -18,1 C 75 % 1023,4 hPa 0,0 mm 0,0 km/h (0 Bft) W-NW 292 -21,0 C 0,0 km/h (0 Bft)
18.01.2016 06:55 -17,8 C -18,1 C 75 % 1023,4 hPa 0,0 mm 0,0 km/h (0 Bft) NW 315 -21,1 C 0,0 km/h (0 Bft)
18.01.2016 07:00 -17,7 C -18,0 C 75 % 1023,7 hPa 0,0 mm 0,0 km/h (0 Bft) NW 315 -21,0 C 0,0 km/h (0 Bft)
18.01.2016 07:05 -17,8 C -18,2 C 75 % 1023,7 hPa 0,0 mm 0,0 km/h (0 Bft) NW 315 -21,1 C 0,0 km/h (0 Bft)
18.01.2016 07:10 -18,2 C -18,5 C 75 % 1023,7 hPa 0,0 mm 0,0 km/h (0 Bft) NW 315 -21,5 C 0,0 km/h (0 Bft)
18.01.2016 07:15 -17,6 C -18,2 C 75 % 1023,7 hPa 0,0 mm 0,0 km/h (0 Bft) W-NW 292 -20,9 C 0,0 km/h (0 Bft)
18.01.2016 07:20 -17,7 C -18,2 C 75 % 1023,3 hPa 0,0 mm 0,0 km/h (0 Bft) W-NW 292 -21,0 C 0,0 km/h (0 Bft)
18.01.2016 07:25 -18,3 C -18,6 C 75 % 1023,3 hPa 0,0 mm 0,0 km/h (0 Bft) W-NW 292 -21,6 C 0,0 km/h (0 Bft)
18.01.2016 07:30 -18,5 C -18,8 C 75 % 1023,3 hPa 0,0 mm 0,0 km/h (0 Bft) W-NW 292 -21,8 C 0,0 km/h (0 Bft)
18.01.2016 07:35 -16,5 C -17,2 C 75 % 1023,3 hPa 0,0 mm 0,0 km/h (0 Bft) SW 225 -19,9 C 0,0 km/h (0 Bft)
18.01.2016 07:40 -17,7 C -18,0 C 75 % 1023,3 hPa 0,0 mm 0,0 km/h (0 Bft) W-SW 247 -21,0 C 0,0 km/h (0 Bft)
18.01.2016 07:45 -19,0 C -19,1 C 74 % 1023,3 hPa 0,0 mm 0,0 km/h (0 Bft) W-SW 247 -22,4 C 0,0 km/h (0 Bft)
18.01.2016 07:50 -19,3 C -19,4 C 74 % 1023,3 hPa 0,0 mm 0,0 km/h (0 Bft) W-SW 247 -22,7 C 0,0 km/h (0 Bft)
18.01.2016 07:55 -19,7 C -19,7 C 74 % 1023,3 hPa 0,0 mm 0,0 km/h (0 Bft) W-SW 247 -23,1 C 0,0 km/h (0 Bft)
18.01.2016 08:00 -19,8 C -19,7 C 74 % 1023,0 hPa 0,0 mm 0,0 km/h (0 Bft) W-SW 247 -23,2 C 0,0 km/h (0 Bft)
18.01.2016 08:05 -19,4 C -19,6 C 74 % 1023,0 hPa 0,0 mm 0,0 km/h (0 Bft) W-SW 247 -22,8 C 0,0 km/h (0 Bft)
18.01.2016 08:10 -18,4 C -19,0 C 74 % 1023,0 hPa 0,0 mm 0,0 km/h (0 Bft) W-SW 247 -21,9 C 0,0 km/h (0 Bft)
18.01.2016 08:15 -18,7 C -19,3 C 74 % 1023,0 hPa 0,0 mm 0,0 km/h (0 Bft) W-SW 247 -22,1 C 0,0 km/h (0 Bft)
18.01.2016 08:20 -18,6 C -19,2 C 74 % 1022,8 hPa 0,0 mm 0,0 km/h (0 Bft) W-SW 247 -22,1 C 0,0 km/h (0 Bft)
18.01.2016 08:25 -18,7 C -19,3 C 74 % 1022,8 hPa 0,0 mm 0,0 km/h (0 Bft) W-SW 247 -22,1 C 0,0 km/h (0 Bft)
18.01.2016 08:30 -18,9 C -19,4 C 74 % 1022,8 hPa 0,0 mm 0,0 km/h (0 Bft) W-SW 247 -22,3 C 0,0 km/h (0 Bft)
18.01.2016 08:35 -19,0 C -19,4 C 74 % 1022,8 hPa 0,0 mm 0,0 km/h (0 Bft) W-SW 247 -22,4 C 0,0 km/h (0 Bft)
18.01.2016 08:40 -18,8 C -19,3 C 74 % 1022,7 hPa 0,0 mm 0,0 km/h (0 Bft) W-SW 247 -22,2 C 0,0 km/h (0 Bft)
18.01.2016 08:45 -18,9 C -19,3 C 74 % 1022,7 hPa 0,0 mm 0,0 km/h (0 Bft) W-SW 247 -22,3 C 0,0 km/h (0 Bft)
18.01.2016 08:50 -19,2 C -19,5 C 74 % 1022,7 hPa 0,0 mm 0,0 km/h (0 Bft) W 270 -22,6 C 0,0 km/h (0 Bft)
18.01.2016 08:55 -19,3 C -19,4 C 73 % 1022,7 hPa 0,0 mm 0,0 km/h (0 Bft) W-SW 247 -22,9 C 0,0 km/h (0 Bft)
18.01.2016 09:00 -19,2 C -19,4 C 73 % 1022,5 hPa 0,0 mm 0,0 km/h (0 Bft) W-SW 247 -22,8 C 0,0 km/h (0 Bft)
18.01.2016 09:05 -18,8 C -19,0 C 74 % 1022,5 hPa 0,0 mm 0,0 km/h (0 Bft) W 270 -22,2 C 0,0 km/h (0 Bft)
18.01.2016 09:10 -18,6 C -18,8 C 74 % 1022,5 hPa 0,0 mm 0,0 km/h (0 Bft) W 270 -22,1 C 0,0 km/h (0 Bft)
18.01.2016 09:15 -18,5 C -18,6 C 74 % 1022,5 hPa 0,0 mm 0,0 km/h (0 Bft) W 270 -22,0 C 0,0 km/h (0 Bft)
18.01.2016 09:20 -18,4 C -18,5 C 74 % 1022,7 hPa 0,0 mm 0,0 km/h (0 Bft) W 270 -21,9 C 0,0 km/h (0 Bft)
18.01.2016 09:25 -17,8 C -18,0 C 74 % 1022,7 hPa 0,0 mm 0,0 km/h (0 Bft) W-SW 247 -21,3 C 0,0 km/h (0 Bft)
18.01.2016 09:26 -17,6 C -17,8 C 74 % 1022,7 hPa 0,0 mm 0,0 km/h (0 Bft) W-SW 247 -21,1 C 0,0 km/h (0 Bft)
18.01.2016 09:27 -17,6 C -17,8 C 74 % 1022,7 hPa 0,0 mm 0,0 km/h (0 Bft) W-SW 247 -21,1 C 0,0 km/h (0 Bft)
18.01.2016 09:30 -17,6 C -17,8 C 74 % 1022,7 hPa 0,0 mm 0,0 km/h (0 Bft) W-SW 247 -21,1 C 0,0 km/h (0 Bft)
18.01.2016 09:35 -17,1 C -17,4 C 74 % 1022,7 hPa 0,0 mm 0,0 km/h (0 Bft) W-SW 247 -20,6 C 0,0 km/h (0 Bft)
18.01.2016 09:40 -17,0 C -17,3 C 74 % 1022,3 hPa 0,0 mm 0,0 km/h (0 Bft) W-SW 247 -20,5 C 0,0 km/h (0 Bft)
18.01.2016 09:45 -16,7 C -17,0 C 75 % 1022,3 hPa 0,0 mm 0,0 km/h (0 Bft) SW 225 -20,1 C 0,0 km/h (0 Bft)
18.01.2016 09:50 -16,6 C -16,8 C 75 % 1022,3 hPa 0,0 mm 0,0 km/h (0 Bft) SW 225 -20,0 C 0,0 km/h (0 Bft)
18.01.2016 09:55 -16,8 C -16,8 C 75 % 1022,3 hPa 0,0 mm 0,0 km/h (0 Bft) W-SW 247 -20,2 C 0,0 km/h (0 Bft)
18.01.2016 10:00 -16,6 C -16,6 C 75 % 1022,2 hPa 0,0 mm 0,0 km/h (0 Bft) W-SW 247 -20,0 C 0,0 km/h (0 Bft)
18.01.2016 10:05 -16,1 C -16,2 C 75 % 1022,2 hPa 0,0 mm 0,0 km/h (0 Bft) W-SW 247 -19,5 C 0,0 km/h (0 Bft)
18.01.2016 10:10 -15,1 C -15,2 C 75 % 1022,2 hPa 0,0 mm 0,0 km/h (0 Bft) SW 225 -18,5 C 0,0 km/h (0 Bft)
18.01.2016 10:15 -15,4 C -14,7 C 75 % 1022,2 hPa 0,0 mm 0,0 km/h (0 Bft) W 270 -18,8 C 0,0 km/h (0 Bft)
18.01.2016 10:20 -15,0 C -14,6 C 75 % 1022,3 hPa 0,0 mm 0,0 km/h (0 Bft) W-SW 247 -18,4 C 0,0 km/h (0 Bft)
18.01.2016 10:26 -13,9 C -13,9 C 76 % 1022,3 hPa 0,0 mm 0,0 km/h (0 Bft) S 180 -17,2 C 0,0 km/h (0 Bft)
18.01.2016 10:30 -13,7 C -13,6 C 76 % 1022,3 hPa 0,0 mm 0,0 km/h (0 Bft) S 180 -17,0 C 0,0 km/h (0 Bft)
18.01.2016 10:35 -13,9 C -13,8 C 76 % 1022,3 hPa 0,0 mm 0,0 km/h (0 Bft) S 180 -17,2 C 0,0 km/h (0 Bft)
18.01.2016 10:40 -13,9 C -13,7 C 75 % 1022,1 hPa 0,0 mm 0,0 km/h (0 Bft) S 180 -17,3 C 0,0 km/h (0 Bft)
18.01.2016 10:45 -13,4 C -13,1 C 76 % 1022,1 hPa 0,0 mm 0,0 km/h (0 Bft) S 180 -16,7 C 0,0 km/h (0 Bft)
18.01.2016 10:50 -12,9 C -12,7 C 76 % 1022,1 hPa 0,0 mm 0,0 km/h (0 Bft) S 180 -16,2 C 0,0 km/h (0 Bft)
18.01.2016 10:55 -12,5 C -12,6 C 76 % 1022,1 hPa 0,0 mm 0,0 km/h (0 Bft) S 180 -15,8 C 0,0 km/h (0 Bft)
18.01.2016 11:00 -12,5 C -12,6 C 76 % 1021,8 hPa 0,0 mm 0,0 km/h (0 Bft) S 180 -15,8 C 0,0 km/h (0 Bft)
18.01.2016 11:05 -12,2 C -12,5 C 79 % 1021,8 hPa 0,0 mm 0,0 km/h (0 Bft) S 180 -15,1 C 0,0 km/h (0 Bft)
18.01.2016 11:10 -12,2 C -12,3 C 77 % 1021,8 hPa 0,0 mm 0,0 km/h (0 Bft) S 180 -15,4 C 0,0 km/h (0 Bft)
18.01.2016 11:15 -12,2 C -12,3 C 77 % 1021,8 hPa 0,0 mm 0,0 km/h (0 Bft) S 180 -15,4 C 0,0 km/h (0 Bft)
18.01.2016 11:20 -12,2 C -12,4 C 79 % 1021,8 hPa 0,0 mm 0,0 km/h (0 Bft) S 180 -15,1 C 0,0 km/h (0 Bft)
18.01.2016 11:25 -11,5 C -11,8 C 80 % 1021,8 hPa 0,0 mm 0,0 km/h (0 Bft) S 180 -14,2 C 0,0 km/h (0 Bft)
18.01.2016 11:30 -11,5 C -11,7 C 80 % 1021,8 hPa 0,0 mm 0,0 km/h (0 Bft) S-SO 157 -14,2 C 0,0 km/h (0 Bft)
18.01.2016 11:35 -11,3 C -11,5 C 80 % 1021,8 hPa 0,0 mm 0,0 km/h (0 Bft) SO 135 -14,0 C 0,0 km/h (0 Bft)
18.01.2016 11:40 -11,1 C -11,3 C 80 % 1021,6 hPa 0,0 mm 0,0 km/h (0 Bft) S-SO 157 -13,8 C 0,0 km/h (0 Bft)
18.01.2016 11:45 -11,1 C -11,0 C 77 % 1021,6 hPa 0,0 mm 0,3 km/h (0 Bft) O-NO 67 -14,3 C 3,4 km/h (1 Bft)
18.01.2016 11:50 -10,8 C -10,9 C 80 % 1021,6 hPa 0,0 mm 0,5 km/h (0 Bft) O-SO 112 -13,6 C 0,0 km/h (0 Bft)
18.01.2016 11:55 -10,6 C -10,6 C 78 % 1021,6 hPa 0,0 mm 0,3 km/h (0 Bft) O-SO 112 -13,7 C 0,0 km/h (0 Bft)
18.01.2016 12:00 -10,6 C -10,6 C 81 % 1021,3 hPa 0,0 mm 0,8 km/h (0 Bft) O-SO 112 -13,2 C 5,4 km/h (1 Bft)
18.01.2016 12:05 -10,5 C -10,4 C 78 % 1021,3 hPa 0,0 mm 0,8 km/h (0 Bft) SO 135 -13,6 C 6,0 km/h (2 Bft)
18.01.2016 12:10 -10,4 C -10,4 C 81 % 1021,3 hPa 0,0 mm 1,0 km/h (0 Bft) O-SO 112 -13,0 C 3,4 km/h (1 Bft)
18.01.2016 12:15 -10,3 C -10,2 C 81 % 1021,3 hPa 0,0 mm 1,0 km/h (0 Bft) O-NO 67 -12,9 C 0,0 km/h (0 Bft)
18.01.2016 12:20 -10,1 C -10,1 C 81 % 1021,0 hPa 0,0 mm 0,8 km/h (0 Bft) O-NO 67 -12,7 C 3,9 km/h (1 Bft)
18.01.2016 12:25 -10,0 C -9,9 C 78 % 1021,0 hPa 0,0 mm 0,5 km/h (0 Bft) SO 135 -13,1 C 0,0 km/h (0 Bft)
18.01.2016 12:30 -9,8 C -9,8 C 78 % 1021,0 hPa 0,0 mm 0,8 km/h (0 Bft) NO 45 -12,9 C 0,0 km/h (0 Bft)
18.01.2016 12:35 -9,9 C -9,9 C 82 % 1021,0 hPa 0,0 mm 1,0 km/h (0 Bft) SO 135 -12,4 C 0,0 km/h (0 Bft)
18.01.2016 12:40 -9,8 C -9,8 C 78 % 1020,6 hPa 0,0 mm 1,0 km/h (0 Bft) O-NO 67 -12,9 C 4,1 km/h (1 Bft)
18.01.2016 12:45 -9,7 C -9,7 C 78 % 1020,6 hPa 0,0 mm 1,3 km/h (1 Bft) O-SO 112 -12,8 C 6,2 km/h (2 Bft)
18.01.2016 12:50 -9,7 C -9,7 C 82 % 1020,6 hPa 0,0 mm 1,0 km/h (0 Bft) O-NO 67 -12,2 C 0,0 km/h (0 Bft)
18.01.2016 12:55 -9,9 C -9,8 C 81 % 1020,6 hPa 0,0 mm 0,3 km/h (0 Bft) SO 135 -12,5 C 0,0 km/h (0 Bft)
18.01.2016 13:00 -10,0 C -9,8 C 81 % 1020,4 hPa 0,0 mm 0,0 km/h (0 Bft) S-SO 157 -12,6 C 0,0 km/h (0 Bft)
18.01.2016 13:05 -9,8 C -9,7 C 81 % 1020,4 hPa 0,0 mm 0,0 km/h (0 Bft) SW 225 -12,4 C 0,0 km/h (0 Bft)
18.01.2016 13:10 -9,8 C -9,6 C 78 % 1020,4 hPa 0,0 mm 0,3 km/h (0 Bft) S-SO 157 -12,9 C 4,7 km/h (1 Bft)
18.01.2016 13:15 -9,5 C -9,5 C 78 % 1020,4 hPa 0,0 mm 0,3 km/h (0 Bft) O 90 -12,6 C 0,0 km/h (0 Bft)
18.01.2016 13:20 -9,5 C -9,5 C 82 % 1020,1 hPa 0,0 mm 0,3 km/h (0 Bft) S 180 -12,0 C 0,0 km/h (0 Bft)
18.01.2016 13:25 -9,4 C -9,3 C 78 % 1020,1 hPa 0,0 mm 0,5 km/h (0 Bft) O-SO 112 -12,5 C 3,4 km/h (1 Bft)
18.01.2016 13:30 -9,2 C -9,1 C 79 % 1020,1 hPa 0,0 mm 1,6 km/h (1 Bft) N-NO 22 -12,2 C 6,0 km/h (2 Bft)
18.01.2016 13:35 -9,1 C -9,0 C 79 % 1020,1 hPa 0,0 mm 2,6 km/h (1 Bft) N 360 -12,1 C 6,5 km/h (2 Bft)
18.01.2016 13:40 -9,1 C -9,0 C 79 % 1019,6 hPa 0,0 mm 2,3 km/h (1 Bft) O-NO 67 -12,1 C 6,5 km/h (2 Bft)
18.01.2016 13:45 -8,9 C -8,9 C 82 % 1019,6 hPa 0,0 mm 0,8 km/h (0 Bft) S-SO 157 -11,4 C 0,0 km/h (0 Bft)
18.01.2016 13:50 -8,9 C -8,8 C 82 % 1019,6 hPa 0,0 mm 0,5 km/h (0 Bft) O-NO 67 -11,4 C 2,6 km/h (1 Bft)
18.01.2016 13:55 -8,3 C -7,7 C 83 % 1019,6 hPa 0,0 mm 0,3 km/h (0 Bft) O-SO 112 -10,7 C 3,4 km/h (1 Bft)
18.01.2016 14:00 -7,8 C -6,2 C 79 % 1019,4 hPa 0,0 mm 0,3 km/h (0 Bft) O 90 -10,8 C 3,6 km/h (1 Bft)
18.01.2016 14:05 -7,3 C -4,6 C 79 % 1019,4 hPa 0,0 mm 1,8 km/h (1 Bft) O-SO 112 -10,3 C 7,8 km/h (2 Bft)
18.01.2016 14:10 -6,7 C -3,8 C 83 % 1019,4 hPa 0,0 mm 2,3 km/h (1 Bft) O-SO 112 -9,1 C 5,4 km/h (1 Bft)
18.01.2016 14:15 -6,3 C -2,8 C 83 % 1019,4 hPa 0,0 mm 1,3 km/h (1 Bft) O 90 -8,7 C 3,9 km/h (1 Bft)
18.01.2016 14:20 -6,2 C -2,5 C 82 % 1019,3 hPa 0,0 mm 2,1 km/h (1 Bft) SW 225 -8,8 C 0,0 km/h (0 Bft)
18.01.2016 14:25 -6,7 C -1,7 C 82 % 1019,3 hPa 0,0 mm 1,6 km/h (1 Bft) SO 135 -9,2 C 8,8 km/h (2 Bft)
18.01.2016 14:30 -7,3 C -1,3 C 79 % 1019,3 hPa 0,0 mm 0,3 km/h (0 Bft) O-SO 112 -10,3 C 0,0 km/h (0 Bft)
18.01.2016 14:35 -7,6 C -1,5 C 79 % 1019,3 hPa 0,0 mm 1,0 km/h (0 Bft) SO 135 -10,6 C 0,0 km/h (0 Bft)
18.01.2016 14:40 -7,8 C -2,7 C 79 % 1019,3 hPa 0,0 mm 1,3 km/h (1 Bft) S 180 -10,8 C 2,8 km/h (1 Bft)
18.01.2016 14:45 -7,9 C -3,9 C 79 % 1019,3 hPa 0,0 mm 0,5 km/h (0 Bft) O-SO 112 -10,9 C 2,8 km/h (1 Bft)
18.01.2016 14:50 -7,9 C -4,8 C 79 % 1019,3 hPa 0,0 mm 0,5 km/h (0 Bft) O-SO 112 -10,9 C 0,0 km/h (0 Bft)
18.01.2016 14:55 -7,2 C -4,3 C 80 % 1019,3 hPa 0,0 mm 0,0 km/h (0 Bft) SO 135 -10,0 C 0,0 km/h (0 Bft)
18.01.2016 15:00 -7,2 C -3,6 C 79 % 1019,1 hPa 0,0 mm 0,3 km/h (0 Bft) O-NO 67 -10,2 C 3,9 km/h (1 Bft)
18.01.2016 15:05 -7,6 C -3,0 C 79 % 1019,1 hPa 0,0 mm 0,3 km/h (0 Bft) NO 45 -10,6 C 4,7 km/h (1 Bft)
18.01.2016 15:10 -7,5 C -2,7 C 79 % 1019,1 hPa 0,0 mm 0,3 km/h (0 Bft) SO 135 -10,5 C 0,0 km/h (0 Bft)
18.01.2016 15:15 -7,5 C -2,5 C 78 % 1019,1 hPa 0,0 mm 0,3 km/h (0 Bft) S-SO 157 -10,7 C 2,6 km/h (1 Bft)
18.01.2016 15:20 -7,8 C -2,3 C 78 % 1018,8 hPa 0,0 mm 0,0 km/h (0 Bft) S-SO 157 -10,9 C 0,0 km/h (0 Bft)
18.01.2016 15:25 -7,8 C -2,1 C 78 % 1018,8 hPa 0,0 mm 0,0 km/h (0 Bft) O-NO 67 -10,9 C 0,0 km/h (0 Bft)
18.01.2016 15:26 -7,8 C -2,3 C 79 % 1018,8 hPa 0,0 mm 0,0 km/h (0 Bft) O-NO 67 -10,8 C 0,0 km/h (0 Bft)
18.01.2016 15:28 -7,8 C -2,3 C 79 % 1018,8 hPa 0,0 mm 0,0 km/h (0 Bft) O-NO 67 -10,8 C 0,0 km/h (0 Bft)
18.01.2016 15:30 -7,8 C -2,3 C 79 % 1018,8 hPa 0,0 mm 0,0 km/h (0 Bft) O-NO 67 -10,8 C 0,0 km/h (0 Bft)
18.01.2016 15:35 -7,9 C -4,3 C 79 % 1018,8 hPa 0,0 mm 0,0 km/h (0 Bft) S 180 -10,9 C 0,0 km/h (0 Bft)
18.01.2016 15:40 -7,8 C -5,7 C 79 % 1018,8 hPa 0,0 mm 0,0 km/h (0 Bft) SO 135 -10,8 C 0,0 km/h (0 Bft)
18.01.2016 15:45 -7,9 C -7,2 C 80 % 1018,8 hPa 0,0 mm 0,0 km/h (0 Bft) S 180 -10,7 C 0,0 km/h (0 Bft)
18.01.2016 15:50 -8,0 C -7,7 C 80 % 1018,8 hPa 0,0 mm 0,0 km/h (0 Bft) SO 135 -10,8 C 0,0 km/h (0 Bft)
18.01.2016 15:55 -8,0 C -8,1 C 80 % 1018,8 hPa 0,0 mm 0,0 km/h (0 Bft) S-SO 157 -10,8 C 0,0 km/h (0 Bft)
18.01.2016 16:00 -8,0 C -8,2 C 80 % 1018,8 hPa 0,0 mm 0,0 km/h (0 Bft) S-SO 157 -10,8 C 0,0 km/h (0 Bft)
18.01.2016 16:05 -8,0 C -8,3 C 80 % 1018,8 hPa 0,0 mm 0,0 km/h (0 Bft) SO 135 -10,8 C 0,0 km/h (0 Bft)
18.01.2016 16:10 -8,1 C -8,4 C 80 % 1018,8 hPa 0,0 mm 0,0 km/h (0 Bft) S-SO 157 -10,9 C 0,0 km/h (0 Bft)
18.01.2016 16:15 -8,1 C -8,5 C 80 % 1018,8 hPa 0,0 mm 0,0 km/h (0 Bft) SO 135 -10,9 C 0,0 km/h (0 Bft)
18.01.2016 16:20 -8,1 C -8,5 C 79 % 1018,8 hPa 0,0 mm 0,3 km/h (0 Bft) S-SO 157 -11,1 C 0,0 km/h (0 Bft)
18.01.2016 16:21 -8,2 C -8,6 C 79 % 1018,8 hPa 0,0 mm 0,3 km/h (0 Bft) S 180 -11,2 C 0,0 km/h (0 Bft)
18.01.2016 16:26 -8,2 C -8,6 C 79 % 1018,8 hPa 0,0 mm 0,3 km/h (0 Bft) S 180 -11,2 C 0,0 km/h (0 Bft)
18.01.2016 16:31 -8,2 C -8,6 C 79 % 1018,8 hPa 0,0 mm 0,3 km/h (0 Bft) S 180 -11,2 C 0,0 km/h (0 Bft)
18.01.2016 17:43 -8,2 C -8,6 C 79 % 1018,8 hPa 0,0 mm 0,3 km/h (0 Bft) S 180 -11,2 C 0,0 km/h (0 Bft)
18.01.2016 17:45 -8,2 C -8,6 C 79 % 1019,3 hPa 0,0 mm 0,0 km/h (0 Bft) SO 135 -11,2 C 0,0 km/h (0 Bft)
18.01.2016 17:50 -10,7 C -11,1 C 80 % 1019,3 hPa 0,0 mm 0,3 km/h (0 Bft) S 180 -13,5 C 0,0 km/h (0 Bft)
18.01.2016 17:55 -10,6 C -10,9 C 80 % 1019,3 hPa 0,0 mm 0,3 km/h (0 Bft) S 180 -13,4 C 3,1 km/h (1 Bft)
18.01.2016 18:00 -10,8 C -11,1 C 80 % 1019,3 hPa 0,0 mm 2,3 km/h (1 Bft) SW 225 -13,6 C 3,9 km/h (1 Bft)
18.01.2016 18:05 -10,8 C -11,1 C 80 % 1019,1 hPa 0,0 mm 2,3 km/h (1 Bft) S 180 -13,6 C 4,9 km/h (1 Bft)
18.01.2016 18:10 -11,4 C -11,6 C 80 % 1019,1 hPa 0,0 mm 0,8 km/h (0 Bft) O-SO 112 -14,1 C 0,0 km/h (0 Bft)
18.01.2016 18:15 -11,4 C -11,7 C 79 % 1019,1 hPa 0,0 mm 0,0 km/h (0 Bft) S 180 -14,3 C 0,0 km/h (0 Bft)
18.01.2016 18:20 -11,6 C -11,9 C 79 % 1019,1 hPa 0,0 mm 1,8 km/h (1 Bft) S 180 -14,5 C 2,8 km/h (1 Bft)
18.01.2016 18:25 -11,5 C -11,8 C 79 % 1019,3 hPa 0,0 mm 1,8 km/h (1 Bft) S-SW 202 -14,4 C 10,4 km/h (2 Bft)
18.01.2016 18:30 -11,4 C -11,8 C 80 % 1019,3 hPa 0,0 mm 1,0 km/h (0 Bft) S 180 -14,1 C 0,0 km/h (0 Bft)
18.01.2016 18:35 -11,7 C -12,0 C 79 % 1019,3 hPa 0,0 mm 1,8 km/h (1 Bft) S-SW 202 -14,6 C 3,9 km/h (1 Bft)
18.01.2016 18:40 -11,6 C -11,9 C 79 % 1019,3 hPa 0,0 mm 2,8 km/h (1 Bft) SW 225 -14,5 C 9,3 km/h (2 Bft)
18.01.2016 18:45 -11,5 C -11,9 C 79 % 1019,3 hPa 0,0 mm 3,1 km/h (1 Bft) SW 225 -14,4 C 6,5 km/h (2 Bft)
18.01.2016 18:50 -11,6 C -12,0 C 79 % 1019,3 hPa 0,0 mm 3,1 km/h (1 Bft) SW 225 -14,5 C 7,3 km/h (2 Bft)
18.01.2016 18:55 -11,5 C -11,8 C 79 % 1019,3 hPa 0,0 mm 2,3 km/h (1 Bft) S-SO 157 -14,4 C 4,4 km/h (1 Bft)
18.01.2016 19:00 -11,7 C -12,1 C 79 % 1019,3 hPa 0,0 mm 1,6 km/h (1 Bft) S 180 -14,6 C 2,6 km/h (1 Bft)
18.01.2016 19:05 -11,8 C -12,2 C 79 % 1019,6 hPa 0,0 mm 0,8 km/h (0 Bft) S 180 -14,7 C 0,0 km/h (0 Bft)
18.01.2016 19:10 -12,0 C -12,3 C 79 % 1019,6 hPa 0,0 mm 0,5 km/h (0 Bft) SO 135 -14,9 C 0,0 km/h (0 Bft)
18.01.2016 19:15 -12,0 C -12,4 C 79 % 1019,6 hPa 0,0 mm 0,5 km/h (0 Bft) S 180 -14,9 C 0,0 km/h (0 Bft)
18.01.2016 19:20 -12,2 C -12,6 C 79 % 1019,6 hPa 0,0 mm 0,3 km/h (0 Bft) SO 135 -15,1 C 0,0 km/h (0 Bft)
18.01.2016 19:25 -12,4 C -12,9 C 79 % 1019,4 hPa 0,0 mm 0,3 km/h (0 Bft) S 180 -15,3 C 2,6 km/h (1 Bft)
18.01.2016 19:30 -12,4 C -12,8 C 79 % 1019,4 hPa 0,0 mm 0,5 km/h (0 Bft) S-SO 157 -15,3 C 0,0 km/h (0 Bft)
18.01.2016 19:35 -12,5 C -12,9 C 79 % 1019,4 hPa 0,0 mm 0,8 km/h (0 Bft) S-SO 157 -15,4 C 0,0 km/h (0 Bft)
18.01.2016 19:40 -12,6 C -13,0 C 79 % 1019,4 hPa 0,0 mm 0,5 km/h (0 Bft) SO 135 -15,5 C 2,8 km/h (1 Bft)
18.01.2016 19:45 -12,5 C -13,0 C 79 % 1019,4 hPa 0,0 mm 0,3 km/h (0 Bft) SO 135 -15,4 C 0,0 km/h (0 Bft)
18.01.2016 19:50 -13,5 C -13,8 C 78 % 1019,4 hPa 0,0 mm 0,3 km/h (0 Bft) O-SO 112 -16,5 C 0,0 km/h (0 Bft)
18.01.2016 19:55 -14,1 C -14,3 C 78 % 1019,4 hPa 0,0 mm 0,0 km/h (0 Bft) S-SO 157 -17,1 C 0,0 km/h (0 Bft)
18.01.2016 20:00 -14,4 C -14,8 C 77 % 1019,4 hPa 0,0 mm 0,0 km/h (0 Bft) O-SO 112 -17,5 C 0,0 km/h (0 Bft)
18.01.2016 20:05 -14,7 C -15,1 C 77 % 1019,0 hPa 0,0 mm 0,0 km/h (0 Bft) O-SO 112 -17,8 C 0,0 km/h (0 Bft)
18.01.2016 20:10 -14,8 C -15,3 C 77 % 1019,0 hPa 0,0 mm 0,0 km/h (0 Bft) O-SO 112 -17,9 C 0,0 km/h (0 Bft)
18.01.2016 20:15 -14,7 C -15,3 C 77 % 1019,0 hPa 0,0 mm 0,0 km/h (0 Bft) O-SO 112 -17,8 C 0,0 km/h (0 Bft)
18.01.2016 20:20 -15,0 C -15,5 C 77 % 1019,0 hPa 0,0 mm 0,0 km/h (0 Bft) O-SO 112 -18,1 C 0,0 km/h (0 Bft)
18.01.2016 20:25 -15,0 C -15,6 C 77 % 1019,2 hPa 0,0 mm 0,0 km/h (0 Bft) SO 135 -18,1 C 0,0 km/h (0 Bft)
18.01.2016 20:30 -14,9 C -15,5 C 77 % 1019,2 hPa 0,0 mm 0,0 km/h (0 Bft) SW 225 -18,0 C 0,0 km/h (0 Bft)
18.01.2016 20:35 -14,5 C -15,2 C 77 % 1019,2 hPa 0,0 mm 0,3 km/h (0 Bft) NO 45 -17,6 C 2,6 km/h (1 Bft)
18.01.2016 20:40 -15,0 C -15,5 C 77 % 1019,2 hPa 0,0 mm 0,5 km/h (0 Bft) O-NO 67 -18,1 C 0,0 km/h (0 Bft)
18.01.2016 20:45 -15,0 C -15,6 C 77 % 1018,8 hPa 0,0 mm 0,3 km/h (0 Bft) SO 135 -18,1 C 0,0 km/h (0 Bft)
18.01.2016 20:50 -15,5 C -16,0 C 76 % 1018,8 hPa 0,0 mm 0,0 km/h (0 Bft) N-NO 22 -18,7 C 0,0 km/h (0 Bft)
18.01.2016 20:55 -15,8 C -16,4 C 76 % 1018,8 hPa 0,0 mm 0,0 km/h (0 Bft) N-NO 22 -19,0 C 0,0 km/h (0 Bft)
18.01.2016 21:00 -15,3 C -16,2 C 76 % 1018,8 hPa 0,0 mm 0,0 km/h (0 Bft) SO 135 -18,5 C 0,0 km/h (0 Bft)
18.01.2016 21:05 -15,3 C -16,2 C 77 % 1018,7 hPa 0,0 mm 0,0 km/h (0 Bft) SO 135 -18,4 C 0,0 km/h (0 Bft)
18.01.2016 21:10 -16,0 C -16,7 C 76 % 1018,7 hPa 0,0 mm 0,3 km/h (0 Bft) SO 135 -19,2 C 4,1 km/h (1 Bft)
18.01.2016 21:15 -14,7 C -15,7 C 77 % 1018,7 hPa 0,0 mm 1,8 km/h (1 Bft) SW 225 -17,8 C 4,1 km/h (1 Bft)
18.01.2016 21:20 -16,2 C -16,6 C 76 % 1018,7 hPa 0,0 mm 2,1 km/h (1 Bft) O-NO 67 -19,4 C 0,0 km/h (0 Bft)
18.01.2016 21:25 -16,7 C -17,0 C 76 % 1018,5 hPa 0,0 mm 0,5 km/h (0 Bft) O-NO 67 -19,9 C 0,0 km/h (0 Bft)
18.01.2016 21:30 -16,8 C -17,2 C 76 % 1018,5 hPa 0,0 mm 0,0 km/h (0 Bft) O-NO 67 -20,0 C 0,0 km/h (0 Bft)
18.01.2016 21:35 -16,9 C -17,4 C 75 % 1018,5 hPa 0,0 mm 0,0 km/h (0 Bft) O-SO 112 -20,3 C 0,0 km/h (0 Bft)
18.01.2016 21:39 -17,1 C -17,6 C 75 % 1018,5 hPa 0,0 mm 0,0 km/h (0 Bft) S-SW 202 -20,4 C 0,0 km/h (0 Bft)
18.01.2016 21:45 -17,0 C -17,6 C 75 % 1018,2 hPa 0,0 mm 0,0 km/h (0 Bft) SW 225 -20,3 C 0,0 km/h (0 Bft)
18.01.2016 21:50 -16,6 C -17,2 C 76 % 1018,2 hPa 0,0 mm 0,0 km/h (0 Bft) S-SO 157 -19,8 C 0,0 km/h (0 Bft)
18.01.2016 21:55 -16,6 C -17,2 C 76 % 1018,2 hPa 0,0 mm 0,0 km/h (0 Bft) S-SO 157 -19,8 C 0,0 km/h (0 Bft)
18.01.2016 22:00 -17,3 C -17,8 C 76 % 1018,2 hPa 0,0 mm 0,3 km/h (0 Bft) NW 315 -20,5 C 0,0 km/h (0 Bft)
18.01.2016 22:05 -17,1 C -17,7 C 76 % 1018,4 hPa 0,0 mm 0,3 km/h (0 Bft) NW 315 -20,3 C 0,0 km/h (0 Bft)
18.01.2016 22:10 -17,3 C -17,8 C 75 % 1018,4 hPa 0,0 mm 0,0 km/h (0 Bft) N-NW 337 -20,6 C 0,0 km/h (0 Bft)
18.01.2016 22:15 -16,9 C -17,6 C 76 % 1018,4 hPa 0,0 mm 0,3 km/h (0 Bft) NW 315 -20,1 C 0,0 km/h (0 Bft)
18.01.2016 22:20 -16,7 C -17,3 C 76 % 1018,4 hPa 0,0 mm 1,0 km/h (0 Bft) O-SO 112 -19,9 C 0,0 km/h (0 Bft)
18.01.2016 22:25 -17,2 C -17,6 C 76 % 1018,6 hPa 0,0 mm 1,0 km/h (0 Bft) W-SW 247 -20,4 C 0,0 km/h (0 Bft)
18.01.2016 22:30 -16,8 C -17,4 C 76 % 1018,6 hPa 0,0 mm 0,5 km/h (0 Bft) NO 45 -20,0 C 0,0 km/h (0 Bft)
18.01.2016 22:35 -16,5 C -17,0 C 74 % 1018,6 hPa 0,0 mm 0,5 km/h (0 Bft) S 180 -20,0 C 0,0 km/h (0 Bft)
18.01.2016 22:40 -16,0 C -16,7 C 77 % 1018,6 hPa 0,0 mm 0,0 km/h (0 Bft) O-NO 67 -19,1 C 0,0 km/h (0 Bft)
18.01.2016 22:45 -16,7 C -17,1 C 76 % 1018,5 hPa 0,0 mm 0,0 km/h (0 Bft) O-NO 67 -19,9 C 0,0 km/h (0 Bft)
18.01.2016 22:50 -16,0 C -16,7 C 77 % 1018,5 hPa 0,0 mm 0,0 km/h (0 Bft) O-NO 67 -19,1 C 0,0 km/h (0 Bft)
18.01.2016 22:55 -16,6 C -17,1 C 76 % 1018,5 hPa 0,0 mm 0,0 km/h (0 Bft) O-NO 67 -19,8 C 0,0 km/h (0 Bft)
18.01.2016 23:00 -16,0 C -16,7 C 77 % 1018,5 hPa 0,0 mm 0,0 km/h (0 Bft) O-SO 112 -19,1 C 0,0 km/h (0 Bft)
18.01.2016 23:05 -16,4 C -17,0 C 76 % 1018,8 hPa 0,0 mm 0,0 km/h (0 Bft) O-SO 112 -19,6 C 0,0 km/h (0 Bft)
18.01.2016 23:10 -16,6 C -17,2 C 76 % 1018,8 hPa 0,0 mm 0,0 km/h (0 Bft) O-SO 112 -19,8 C 0,0 km/h (0 Bft)
18.01.2016 23:15 -16,4 C -17,1 C 76 % 1018,8 hPa 0,0 mm 0,0 km/h (0 Bft) SO 135 -19,6 C 0,0 km/h (0 Bft)
18.01.2016 23:20 -16,8 C -17,3 C 76 % 1018,8 hPa 0,0 mm 0,0 km/h (0 Bft) S-SO 157 -20,0 C 0,0 km/h (0 Bft)
18.01.2016 23:25 -16,5 C -17,1 C 76 % 1018,9 hPa 0,0 mm 0,0 km/h (0 Bft) SO 135 -19,7 C 0,0 km/h (0 Bft)
18.01.2016 23:30 -16,7 C -17,2 C 76 % 1018,9 hPa 0,0 mm 0,0 km/h (0 Bft) W 270 -19,9 C 0,0 km/h (0 Bft)
18.01.2016 23:35 -16,8 C -17,2 C 76 % 1018,9 hPa 0,0 mm 0,0 km/h (0 Bft) W 270 -20,0 C 0,0 km/h (0 Bft)
18.01.2016 23:40 -16,6 C -17,1 C 76 % 1018,9 hPa 0,0 mm 0,0 km/h (0 Bft) W 270 -19,8 C 0,0 km/h (0 Bft)
18.01.2016 23:45 -16,5 C -17,0 C 76 % 1018,7 hPa 0,0 mm 0,0 km/h (0 Bft) W 270 -19,7 C 0,0 km/h (0 Bft)
18.01.2016 23:50 -16,6 C -17,0 C 76 % 1018,7 hPa 0,0 mm 0,0 km/h (0 Bft) W-SW 247 -19,8 C 0,0 km/h (0 Bft)
18.01.2016 23:55 -16,6 C -17,1 C 76 % 1018,7 hPa 0,0 mm 0,0 km/h (0 Bft) W 270 -19,8 C 0,0 km/h (0 Bft)
_ Min-Zeit 08:00 08:00 09:00 22:00 - 23:55 - - 08:00 23:55
Minimum _ -19,8 C -19,7 C 73 % 1018,2 hPa - 0,0 km/h (0 Bft) - - -23,2 C 0,0 km/h (0 Bft)
_ Max-Zeit 14:20 14:30 14:15 00:15 23:55 18:50 - - 14:15 18:25
Maximum _ -6,2 C -1,3 C 83 % 1026,6 hPa 0,0 mm 3,1 km/h
SW (1 Bft)
- - -8,7 C 10,4 km/h
S-SW (2 Bft)
Durchschnitt _ -13,3 C -13,3 C 78 % 1021,6 hPa #0,0 mm 0,3 km/h (0 Bft) SW - -16,4 C 0,7 km/h (0 Bft)